Find Kosmos-1287

NORAD ID: 12636 Int'l Des: 1981-074 Owner: GUKOS Country: SU operational
LEOCIRCULAR

实时位置

正在加载3D地球...

关于 Kosmos-1287

正在加载描述...

即将过境

Passes for default location (London). Set your location on the main map for personalized predictions.

高度历史

Loading altitude history...

两行轨道根数

1 12636U 81074A 26105.91681950 -.00000010 00000-0 40196-4 0 9997
2 12636 74.0313 285.6189 0030292 102.9305 257.5129 12.44354381 30686
Epoch: Apr 15, 2026 • Age: 6 hours

当前状态

高度 1476.1 km
速度 7.14 km/s
星下点 69.95°N, 144.6°E
发射日期 Aug 6, 1981
运行时间 44.6 years
类型 other

技术详情

分类 Payload
质量 60.00 kg
干质量 60.00 kg
总质量 60.00 kg
长度 0.80 m
直径 0.80 m
跨度 0.80 m
形状 Poly
制造商 NPOPM
平台类型 Strela-1 11F625
阶段状态 In Orbit
所有者/国家 GUKOS/SU

Most Searched